Location: Pisa
(43.7170°N, 10.3830°E)
Time: 00:01:11
(UTC+02:00)

ISS - Pass Details

Date: 11 May 2021
Orbit: 417 x 422 km, 51.6° (Epoch: 20 June)

Event Time Altitude Azimuth Distance (km) Brightness Sun altitude
Exits shadow 03:37:03 - 304° (NW) 1,876 -0.5 -20.3°
Reaches altitude 10° 03:38:08 10° 314° (NW) 1,508 -0.9 -20.2°
Maximum altitude 03:40:50 22° 7° (N) 986 -1.2 -19.9°
Drops below altitude 10° 03:43:33 10° 60° (ENE) 1,509 0.1 -19.6°
Sets 03:45:59 0° 76° (ENE) 2,373 0.9 -19.3°
